Starlink 31298

operational
NORAD ID: 59167 Int'l Des: 2024-044 Owner: SPXS Country: US Constellation: starlink
LEOCIRCULAR

关于 Starlink 31298

正在加载描述...

实时位置

正在加载3D地球...

即将过境

高度历史

Altitude vs Time

uPlot chart will show altitude changes over time

两行轨道根数

1 59167U 24044R 25349.65415205 -.00000524 00000-0 -95260-5 0 9993
2 59167 42.9999 221.5989 0001345 261.0648 99.0052 15.27572838100710
Epoch: Dec 15, 2025 • Age: 20 hours

当前状态

高度 490.0 km
速度 7.62 km/s
星下点 -28.76°S, 82.94°W
发射日期 Mar 4, 2024
运行时间 1.7 years
类型 internet

技术详情

分类 Payload
质量 730.00 kg
干质量 700.00 kg
总质量 730.00 kg
长度 0.30 m
直径 4.10 m
跨度 29.00 m
形状 Box + pan
制造商 SPXS
平台类型 Starlink V2M
阶段状态 In Orbit
所有者/国家 SPXS/US

大型星座

Loading constellations...